Location: Unspecified
(0.0000°N, 0.0000°E)
Time: 21:55:58
(UTC+02:00)

Daily predictions for brighter satellites

Satellite Brightness Start Highest point End
(mag) Time Altitude Azimuth Time Altitude Azimuth Time Altitude Azimuth
Ariane H10-3 2.9 20:08:07 10° WSW 20:10:36 71° S 20:17:03 10° E
Cosmos 1602 Rocket 3.8 20:12:40 10° NNE 20:16:54 47° E 20:21:11 10° SSE
Thor Agena Rocket 3.7 20:14:45 10° N 20:19:56 84° WNW 20:25:03 10° SSW
Cosmos 1484 Rocket 4.3 20:17:36 10° S 20:21:25 43° WSW 20:25:13 10° NNW
ERS-2 4.4 20:20:25 10° SSW 20:23:40 30° WSW 20:26:54 10° NW
Meteor 1-21 4.3 20:20:15 10° N 20:26:03 72° E 20:31:51 10° S
Nadezhda 1 Rocket 4.0 20:20:57 10° N 20:27:07 60° E 20:33:12 10° SSE
Cosmos 1626 Rocket 3.5 20:22:55 10° N 20:27:21 76° E 20:31:50 10° S
Stardust Del rocket 3.4 20:25:15 10° NW 20:27:45 41° NNE 20:31:16 12° E
COSMOS 2406 3.6 20:23:58 10° S 20:29:14 40° ESE 20:34:29 10° NE
MONITOR-E 4.0 20:27:45 10° SSE 20:30:50 77° E 20:33:54 10° N
Ariane 44P Rocket 2.5 20:22:51 10° W 20:31:30 88° S 20:33:39 15° E
ATLAS 2AS CENTAUR RB 4.1 15:02:39 10° W 20:31:59 89° S 20:37:57 13° ENE
ATLAS 2A CENTAUR R/B 3.4 20:31:42 10° S 20:33:49 15° SE 20:36:03 12° ESE
GEOS 3 Rocket 3.9 20:29:11 10° NNE 20:34:30 76° WNW 20:39:46 10° SSW
Cosmos 1709 Rocket 4.2 20:28:35 10° S 20:34:50 79° W 20:41:09 10° N
USA 234 3.9 20:30:03 10° ESE 20:35:51 34° NE 20:41:37 10° N
SL-08 ROCKET BODY 4.3 20:34:05 10° S 20:39:49 59° E 20:45:32 10° NNE
ISS -4.0 20:40:10 10° SSW 20:43:25 76° SE 20:46:17 13° NE
Cosmos 304 Rocket 3.7 20:41:34 10° SSW 20:46:21 90° ENE 20:51:07 10° NNE
H-10 deb 3.9 20:43:06 10° WSW 20:47:17 55° S 21:00:59 18° ESE
Cosmos 1766 4.2 20:45:16 10° SSE 20:48:37 26° E 20:51:39 12° NE
FENGYUN 3A 3.8 20:44:02 10° SSE 20:49:12 49° ENE 20:54:19 10° N
Cosmos 1842 3.9 20:48:26 10° NNW 20:52:17 57° W 20:56:08 10° S
Cosmos 1825 Rocket 4.0 20:49:52 10° NNE 20:54:00 38° E 20:58:08 10° SSE
Ariane H10-3 2.6 20:46:29 10° W 20:55:36 77° S 20:56:54 33° E
Cosmos 2184 Rocket 4.0 20:52:13 10° S 20:58:17 56° E 21:04:23 10° NNE
ALOS 2.1 20:57:55 10° SSE 21:02:36 82° ENE 21:07:15 10° N
Cosmos 2369 Rocket 2.7 21:03:04 10° N 21:08:07 35° ENE 21:08:47 34° E
Cosmos 1184 Rocket 3.0 21:06:18 10° N 21:09:39 73° W 21:13:01 10° S
Cosmos 2327 Rocket 4.4 21:17:41 10° S 21:23:59 89° W 21:30:09 10° N
Cosmos 1758 Rocket 3.4 21:20:27 10° N 21:24:55 76° E 21:25:41 59° SSE
OAO 3 Rocket 3.3 21:20:07 10° WSW 21:24:59 72° NW 21:26:03 52° NNE
VEP-3 3.7 20:53:19 10° WNW 21:26:12 68° NNE 21:29:32 39° E
USA 215 3.2 21:23:16 21° NE 21:27:59 88° SE 21:34:34 10° SW
Cosmos 1340 Rocket 4.5 21:24:22 10° N 21:25:58 23° N 21:25:58 23° N
Ariane H10 3.6 21:30:10 10° WSW 21:31:41 27° SW 21:31:41 27° SW
Ariane 42L R/B 4.0 21:30:18 10° WNW 21:33:55 46° N 21:35:48 38° NE
Hubble Space Telescope 2.6 21:33:17 10° W 21:36:39 24° SSW 21:37:02 23° SSW
GPS 2-15 Rocket1 3.5 21:35:45 10° WNW 21:40:12 61° SW 21:40:12 61° SW
GPS 2-17 Rocket1 4.1 21:42:36 10° WNW 21:45:25 38° NW 21:45:25 38° NW
Meteor 2-19 Rocket 4.3 21:41:08 10° S 21:47:14 85° W 21:53:17 10° N
ARIANE 5 DEB (SYLDA) 4.5 21:09:43 10° W 21:54:17 64° S 21:56:05 53° SE
H-2A ROCKET BODY 4.4 21:57:53 10° WSW 22:02:00 25° S 22:04:34 22° SSE
Cosmos 2154 Rocket 4.1 21:56:40 10° S 22:02:50 70° W 22:08:59 10° N
Centaur D AC-28 4.1 22:10:00 10° WNW 22:11:21 17° NW 22:11:21 17° NW
Cosmos 1943 Rocket 4.4 22:12:07 10° NNW 22:13:04 15° NNW 22:13:04 15° NNW
USA 234 4.4 22:16:22 29° SSW 22:18:36 36° SW 22:24:28 10° WNW
